Flag for U.S.A. Weather past 2 weeks in Winamac, Indiana, U.S.A.

Now
68 °F

Passing clouds.


Feels Like: 68 °F
Forecast: 61 / 79 °F
Wind: 12 mph from Southwest

Location: Porter County Municipal Airport

Current Time: May 27, 2015 at 12:13:47 AM

Latest Report: May 26, 2015 at 10:56 PM


Visibility: 10 mi

Pressure: 29.90 "Hg

Humidity: 78%

Dew point: 61 °F

Location of WinamacLocation

Historic Weather in Winamac — Graph

°F

Winamac temperature yesterday

Maximum temperature yesterday: 76 °F (at 12:56 PM)
Minimum temperature yesterday: 65 °F (at 3:56 AM)
Average temperature yesterday: 71 °F

Past Weeks' High & Low Weather Summary

 TemperatureHumidityPressure
High83 °F (May 18, 2:56 PM)97% (May 16, 6:56 AM)30.50 "Hg (May 16, 6:56 AM)
Low38 °F (May 20, 12:56 AM)23% (May 22, 2:56 PM)29.81 "Hg (May 26, 5:56 PM)
Average61 °F66%30.11 "Hg
* Reported May 11 10:56 PM — May 26 10:56 PM, Winamac, Weather by CustomWeather, © 2015

Note: Actual official high and low records may vary slightly from our data, if they occured in-between our weather recording intervals... More about our weather records

Advertising

Winamac weather history for previous 24 hours

 ConditionsComfort  
Time TempWeatherWind HumidityBarometerVisibility
10:56 PM
Tue, May 26
68 °FPassing clouds.12 mph78%29.90 "Hg10 mi
9:56 PM69 °FClear.10 mph73%29.87 "Hg10 mi
8:56 PM71 °FSunny.15 mph68%29.84 "Hg10 mi
7:56 PM72 °FPassing clouds.16 mph66%29.83 "Hg10 mi
6:56 PM75 °FOvercast.18 mph64%29.81 "Hg10 mi
5:56 PM76 °FScattered clouds.20 mph64%29.81 "Hg10 mi
4:56 PM74 °FScattered clouds.17 mph71%29.82 "Hg10 mi
3:56 PM70 °FBroken clouds.20 mph90%29.84 "Hg10 mi
2:56 PM75 °FBroken clouds.25 mph79%29.84 "Hg10 mi
1:56 PM76 °FMostly cloudy.16 mph69%29.84 "Hg10 mi
12:56 PM76 °FMostly cloudy.13 mph67%29.87 "Hg10 mi
11:56 AM73 °FMostly cloudy.13 mph76%29.90 "Hg10 mi
10:56 AM72 °FMostly cloudy.13 mph78%29.92 "Hg10 mi
9:56 AM71 °FOvercast.14 mph78%29.96 "Hg10 mi
8:56 AM70 °FPartly sunny.13 mph84%29.97 "Hg9 mi
7:56 AM67 °FFog.6 mph90%29.97 "Hg6 mi
6:56 AM66 °FFog.8 mph93%29.98 "Hg4 mi
5:56 AM66 °FLow clouds.8 mph93%29.97 "Hg7 mi
4:56 AM66 °FPassing clouds.8 mph90%29.96 "Hg7 mi
3:56 AM65 °FClear.8 mph94%29.96 "Hg10 mi
2:56 AM67 °FClear.7 mph87%29.97 "Hg10 mi
1:56 AM68 °FClear.9 mph84%29.98 "Hg10 mi
12:56 AM70 °FClear.10 mph79%29.98 "Hg10 mi
Weather by CustomWeather, © 2015

See weather overviewHow to use our weather pages